Location: Mexico
(19.4000°N, 99.1500°W)
Time: 00:07:21
(UTC-06:00)

ISS - Pass Details

Date: 11 October 2019
Orbit: 411 x 421 km, 51.6° (Epoch: 14 October)

Event Time Altitude Azimuth Distance (km) Brightness Sun altitude
Rises 20:22:16 0° 299° (WNW) 2,330 0.9 -30.4°
Reaches altitude 10° 20:24:52 10° 277° (W) 1,468 -0.1 -31.0°
Enters shadow 20:25:22 12° 270° (W) 1,344 -0.4 -31.1°
